Location: Mohawk View
(42.7837°N, 73.7885°W)
Time: 01:14:11
(UTC+00:00)

Cosmos 1867 - Pass Details

Date: 17 June 2021
Orbit: 773 x 803 km, 65.0° (Epoch: 02 August)

Event Time Altitude Azimuth Distance (km) Brightness Sun altitude
Rises 04:26:18 0° 323° (NW) 3,320 7.8 -23.5°
Reaches altitude 10° 04:28:46 10° 320° (NW) 2,386 6.8 -23.5°
Maximum altitude 04:34:10 60° 242° (WSW) 915 3.7 -23.6°
Enters shadow 04:34:48 56° 210° (SSW) 951 3.6 -23.6°
